Location: ??????
(55.6130°N, 37.7882°E)
Time: 04:15:31
(UTC+00:00)

Cosmos 1743 Rocket - Pass Details

Date: 14 April 2024
Orbit: 601 x 629 km, 82.6° (Epoch: 23 May)

Event Time Altitude Azimuth Distance (km) Brightness Sun altitude
Rises 00:22:02 0° 347° (NNW) 2,885 7.5 -15.6°
Reaches altitude 10° 00:24:16 10° 346° (NNW) 1,971 6.5 -15.4°
Maximum altitude 00:28:37 77° 261° (W) 626 3.4 -15.0°
Enters shadow 00:32:50 11° 175° (S) 1,913 5.7 -14.5°
